Погода в Мирном

Украина / Донецкая область     48°51′59″N   37°32′48″E
темп.,
°C
ветер,
м/с
пор.,
м/с
влажн.,
%
обл.,
%
осадки,
мм/ч
давл.,
гПа
погр.,
м
19 мая, ср
ср1900:00+13ю51190100 0.0 1006435
03:00+14ю498892 0.1 1006443
06:00+13ююв4894100 0.0 1006328
09:00+14ю4783100 1.0 1006468
12:00+15ююв6874100 1.4 1007983
15:00+17ю696898 2.8 10061232
18:00+16ююз697686 1.0 1005818
21:00+12ю51092100 1.8 1006514
20 мая, чт
чт2000:00+13ююз599473 2.5 1005518
03:00+12юз71292100 2.7 1006550
06:00+12юз51093100 0.1 1007636
09:00+13юз61090100 0.3 1008720
12:00+16зюз7106981 0.7 10101338
15:00+18зюз7116145 0.9 10101414
18:00+18зюз58645 0.1 10111157
21:00+13зсз22795 0.1 101211
21 мая, пт
пт2100:00+12в118386 0.0 101310
03:00+12св2285100 0.0 101419
06:00+12св368382 0.0 1014181
09:00+17всв6866100 0.0 1013550
12:00+19всв71064100 0.0 1013870
15:00+22в6657100 0.0 10121237
18:00+18всв4874100 0.0 1011270
21:00+16ссв4882100 0.0 1012133
22 мая, сб
сб2200:00+15с5108981 0.0 1011226
03:00+14ссв61289100 0.0 1010309
06:00+14с4891100 0.0 1011279
09:00+19св687378 0.0 1011535
12:00+23св5658100 0.0 1011837
15:00+25св5657100 0.0 10101122
18:00+23в4668100 0.0 1011682
21:00+18св3784100 0.0 1010144
23 мая, вс
вс2300:00+19ссз2278100 0.0 101017
03:00+17с359099 0.0 100973
06:00+17ссв388996 0.0 1007207
09:00+21с2373100 0.0 1007398
12:00+25ссв335887 0.0 1006806
15:00+27ссз2250100 0.0 10051239
18:00+26сз45620 0.0 1005902
21:00+20зсз48860 0.0 1007203